User: anonymous   Login
Location: Unspecified
(0.0000°N, 0.0000°E)
Time: 09:34:41
(UTC+00:00)
Language:

ANTELSAT - Orbit

View from above orbital plane
View from above orbital plane
View from above satellite
View from above satellite

Ground track
Ground track

The orbit data is extracted from the following two-line orbital elements,

1 40034U 14033AA  24110.94205053  .00018203  00000-0  23404-2 0  9997
2 40034  97.6933 277.3270 0054033 131.1249 229.4646 14.80151103528736
Epoch (UTC): 19 April 2024 22:36:33
Eccentricity: 0.0054033
inclination: 97.6933°
perigee height: 591 km
apogee height: 667 km
right ascension of ascending node: 277.3270°
argument of perigee: 131.1249°
revolutions per day: 14.80151103
mean anomaly at epoch: 229.4646°
orbit number at epoch: 52873

The dashed part of the orbit path shows where the satellite is in the earth's shadow,  

DLR